STARLINK-11277, 61205

Orbit data source: Space-Track

STARLINK-11277, 61205 is a payload satellite owned by SpaceX/Seattle (US) in LEO that was launched on Fri, 20 Sep 2024 UTC via an FALCON 9 launch vehicle from the Air Force Western Test Range (AFWTR). Payload-class satellites include a variety of spacecraft equipped with specific instruments for various scientific and technological missions. These include communications satellites like Starlink; space stations such as the ISS; scientific satellites like the Hubble; Earth observation satellites from companies like Planet Labs, Umbra, and HawkEye 360; GPS; miniature CubeSats for education and research; and military/defense satellites.

Loading next visibility...
Identifier
61205, 2024-171F
Orbit
LEO
Country
Flag of USUS
Related business
Manufacturer
SpaceX/Seattle
Mission
Operational Commercial Communications
Bus & Motor
STARLINK V2MD, Unknown motor
Mass
960 kg wet, ~910 kg dry
Launch date (UTC)
2024-09-20 (2 years ago)
Launch vehicle
FALCON 9
Launch site
Air Force Western Test Range (AFWTR)
Object type
Payload
Rocket body
Debris
Shape & HBR
Box + 2 Pan, 18.1 m
Radar Cross Section
36.964 m², Large (>1 m²)

Expand to show TLE details & history
Last TLE update: 23 hours ago

TLE from 23 hours ago
0 STARLINK-11277
1 61205U 24171F   26170.89725160 -.00000423  00000-0  13560-5 0  9993
2 61205  53.1579  32.2653 0000434  91.7285 268.3783 15.69717060100459
Epoch: 2026-06-19T21:32Z
TLE epoch observation values (Epoch: 2026-06-19T21:32:02.538Z)
Latitude
0.00002°
Longitude
161.1351°
Altitude
360.63 km
Speed
7.694 km/s
True Right ascension
02h 09m 03s
True Declination
0° 00' 00"
Sunlit
Object was in daylight at epoch
Visualization orbit readout
Latitude
Unknown
Longitude
Unknown
Altitude
Unknown
Speed
Unknown
Apparent Right ascension
Unknown
Apparent Declination
Unknown
Sunlit
N/A
Visualization observer readout
Local Sidereal Time
07:18:23
Azimuth
Unknown
Elevation
Unknown
Doppler factor
Unknown
Orbital elements
Apogee altitude
360.26 km
Perigee altitude
359.675 km
Semi-major axis
6,738.105 km
Eccentricity
0.00004
Inclination
53.1579°
RAAN
32.2653°
Arg. of periapsis
91.7285°
True anomaly
268.37333°
Mean anomaly
268.3783°
Eccentric anomaly
268.37581°
Mean motion
3.92407 °/min
Orbital period
91.74 mins
BSTAR
0.000001356
Loading maneuver chart data...
Computing Atmospheric mass density...
Loading historical data...
Loading historical data...
Loading historical data...
Loading historical data...
Loading historical data...
Loading historical data...
Loading historical data...

Documentation

Showing up to 5 results
|